Welcome to the New NWS' Forecast!
Most changes are behind the scenes, but click here for differences you might notice.
Latest weather observations around

Santa Barbara, Santa Barbara Municipal Airport (KSBA)

Using English Units (Switch to International System of Units)
Date/ Time (PDT) Wind (mph) Vis. (mi) Weather Sky Cond. Temp (°F) Rel. Humidity Wind Chill (°F) Heat Index (°F) Pressure Precip. (in)
Air Dwpt 6 hour Altimeter (inHg) Sea level (inHg) 1 hr 3 hr 6 hr
Max Min
Sep 19 20:53 E 6 9 Clear CLR 64 59     84%     29.71 29.7      
Sep 19 19:53 ESE 6 9 Clear CLR 65 61     87%     29.69 29.69      
Sep 19 18:53 SE 8 9 Clear CLR 66 60     81%     29.69 29.69      
Sep 19 17:53 SSE 8 10 Clear CLR 69 60     73%     29.69 29.69      
Sep 19 16:53 SW 5 10 Clear CLR 76 55     48%   75 29.7 29.7      
Sep 19 15:53 SSW 7 10 Clear CLR 73 57     57%   73 29.73 29.72      
Sep 19 14:53 5 10 Clear CLR 73 57     57%   73 29.75 29.75      
Sep 19 13:53 SSW 8 10 Clear CLR 71 59     66%   71 29.78 29.78      
Sep 19 12:53 WSW 6 10 Clear CLR 70 60     71%     29.8 29.79      
Sep 19 11:53 S 7 10 Mostly Clear FEW005 66 60     81%     29.81 29.81      
Sep 19 10:53 SSE 10 10 Clear CLR 69 61     75%     29.82 29.82      
Sep 19 09:53 SE 8 10 Clear CLR 68 61     78%     29.81 29.81      
Sep 19 08:53 Calm 10 Clear CLR 66 58     75%     29.82 29.81      
Sep 19 07:53 Calm 10 Clear CLR 58 54     87%     29.81 29.81      
Sep 19 06:53 Calm 10 Clear CLR 53 51     93%     29.8 29.8      
Sep 19 05:53 NW 3 10 Clear CLR 55 52     89%     29.79 29.79      
Sep 19 04:53 Calm 10 Clear CLR 58 55     90%     29.78 29.78      
Sep 19 03:53 NE 3 10 Clear CLR 59 56     90%     29.79 29.78      
Sep 19 02:53 NE 7 10 Clear CLR 62 58     86%     29.79 29.79      
Sep 19 01:53 ENE 6 10 Clear CLR 62 58     86%     29.79 29.79      
Sep 19 00:53 ENE 5 10 Clear CLR 63 59     87%     29.8 29.8      
Sep 18 23:53 ENE 5 10 Clear CLR 63 59     87%     29.79 29.79      
Sep 18 22:53 Calm 10 Clear CLR 65 60     84%     29.79 29.79      
Sep 18 21:53 Calm 10 Clear CLR 66 56     70%     29.79 29.79      
Sep 18 20:53 S 5 10 Clear CLR 64 59     84%     29.79 29.79      
Sep 18 19:53 Calm 10 Clear CLR 68 60     76%     29.79 29.79      
Sep 18 18:53 SSE 3 10 Clear CLR 70 59     68%     29.78 29.78      
Sep 18 17:53 WSW 6 10 Clear CLR 72 60     66%   72 29.79 29.79      
Sep 18 16:53 WSW 6 10 Clear CLR 76 57     52%   76 29.8 29.8      
Sep 18 15:53 W 8 10 Clear CLR 74 57     56%   74 29.81 29.81      
Sep 18 14:53 SW 8 10 Clear CLR 76 54     47%   75 29.84 29.84      
Sep 18 13:53 SSW 7 10 Clear CLR 75 54     48%   74 29.86 29.86      
Sep 18 12:53 S 6 10 Clear CLR 74 58     57%   74 29.87 29.87      
Sep 18 11:53 SSE 6 10 Clear CLR 72 58     61%   72 29.88 29.88      
Sep 18 10:53 SSE 10 10 Clear CLR 70 60     71%     29.9 29.9      
Sep 18 08:53 SSE 5 10 Clear CLR 67 58     73%     29.89 29.89      
Sep 18 07:53 Calm 10 Clear CLR 59 52     78%     29.89 29.89      
Sep 18 06:53 Calm 10 Mostly Clear FEW010 53 49     86%     29.88 29.88      
Sep 18 05:53 Calm 10 Clear CLR 55 50     83%     29.87 29.86      
Sep 18 04:53 W 5 10 Clear CLR 54 51     90%     29.86 29.86      
Sep 18 03:53 W 3 10 Clear CLR 55 52     89%     29.86 29.86      
Sep 18 02:53 Calm 10 Clear CLR 54 51     90%     29.86 29.86      
Sep 18 01:53 NNW 3 10 Clear CLR 56 52     87%     29.86 29.86      
Sep 18 00:53 Calm 10 Clear CLR 58 53     84%     29.86        
Sep 17 23:53 Calm 10 Clear CLR 60 55     83%     29.86 29.85      
Sep 17 22:53 Calm 10 Clear CLR 60 55     83%     29.85 29.85      
Sep 17 21:53 NNW 5 10 Clear CLR 60 55     83%     29.85 29.85      
Sep 17 20:53 Calm 10 Clear CLR 67 60     79%     29.85 29.84      
Sep 17 19:53 SSE 6 10 Clear CLR 66 61     84%     29.83 29.83      
Sep 17 18:53 SE 6 10 Clear CLR 70 60     71%     29.83 29.83      
Sep 17 17:53 SW 6 10 Clear CLR 75 58     55%   75 29.83 29.83      
Sep 17 16:53 WSW 9 10 Clear CLR 77 57     50%   77 29.84 29.84      
Sep 17 15:53 WSW 9 10 Clear CLR 77 57     50%   77 29.86 29.85      
Sep 17 14:53 W 9 10 Clear CLR 78 54     43%   78 29.87 29.87      
Sep 17 13:53 WSW 9 10 Clear CLR 76 55     48%   75 29.9 29.9      
Sep 17 12:53 WSW 9 10 Clear CLR 76 58     54%   76 29.91 29.91      
Sep 17 11:53 WSW 7 10 Clear CLR 74 61     64%   74 29.92 29.92      
Sep 17 10:53 SSE 8 10 Clear CLR 72 62     71%   72 29.93 29.92      
Sep 17 09:53 SSW 6 10 Clear CLR 70 60     71%     29.93 29.92      
Sep 17 08:53 WSW 3 10 Clear CLR 67 58     73%     29.91 29.91      
Sep 17 07:53 Calm 10 Clear CLR 59 52     78%     29.91 29.91      
Sep 17 06:53 Calm 8 Clear CLR 53 50     89%     29.89 29.89      
Sep 17 05:53 Calm 10 Clear CLR 55 50     83%     29.88 29.88      
Sep 17 04:53 Calm 10 Clear CLR 52 50     93%     29.87 29.86      
Sep 17 03:53 Calm 10 Clear CLR 54 50     86%     29.86 29.86      
Sep 17 02:53 Calm 10 Clear CLR 54 50     86%     29.87 29.86      
Sep 17 01:53 Calm 10 Clear CLR 57 52     83%     29.87 29.87      
Sep 17 00:53 Calm 10 Clear CLR 56 51     84%     29.87 29.87      
Sep 16 23:53 Calm 10 Clear CLR 57 52     83%     29.87 29.87      
Sep 16 22:53 Calm 10 Clear CLR 61 54     78%     29.87 29.87      
Sep 16 21:53 Calm 10 Clear CLR 61 55     81%     29.87 29.86      
Sep 16 20:53 Calm 10 Clear CLR 65 61     87%     29.87 29.86      
Sep 16 19:53 Calm 10 Clear CLR 67 62     84%     29.86 29.85      
Sep 16 18:53 SSE 5 10 Clear CLR 68 62     81%     29.86 29.85      
Sep 16 17:53 3 10 Clear CLR 74 57     56%   74 29.86 29.86      
Sep 16 16:53 W 6 10 Clear CLR 76 50     40%   75 29.87 29.87      
Sep 16 15:53 W 8 10 Clear CLR 76 55     48%   75 29.88 29.87      
Sep 16 14:53 7 10 Clear CLR 75 56     52%   75 29.89 29.89      
Sep 16 13:53 SW 8 10 Clear CLR 76 56     50%   76 29.9 29.9      
Sep 16 12:53 6 10 Clear CLR 75 57     54%   75 29.92 29.91      
Sep 16 11:53 S 6 10 Clear CLR 72 59     64%   72 29.92 29.92      
Sep 16 10:53 SSE 7 10 Clear CLR 71 61     70%   71 29.92 29.92      
Sep 16 09:53 SSE 8 10 Clear CLR 70 61     73%     29.92 29.92      
Sep 16 08:53 Calm 10 Clear CLR 68 58     70%     29.9 29.9      
Sep 16 07:53 Calm 10 Clear CLR 60 51     72%     29.9 29.9      
Sep 16 06:53 Calm 10 Clear CLR 53 51     93%     29.88 29.88      
Sep 16 05:53 Calm 10 Clear CLR 53 50     89%     29.86 29.86      
Sep 16 04:53 Calm 10 Clear CLR 54 52     93%     29.85 29.84      
Sep 16 03:53 Calm 10 Clear CLR 55 51     86%     29.84 29.84      
Sep 16 02:53 Calm 10 Clear CLR 58 52     81%     29.84 29.84      
Sep 16 01:53 Calm 10 Clear CLR 57 53     87%     29.84 29.84      
Sep 16 00:53 Calm 10 Clear CLR 60 53     78%     29.84 29.83      
Sep 15 23:53 Calm 10 Clear CLR 60 53     78%     29.83 29.83      
Sep 15 22:53 Calm 10 Clear CLR 62 54     75%     29.83 29.83      
Sep 15 21:53 Calm 10 Clear CLR 64 56     75%     29.82 29.82      
Sep 15 20:53 N 3 10 Clear CLR 65 60     84%     29.82 29.81      
Notice The following observation data may not be complete
Sep 15 19:53 Calm 10 Clear CLR   58      %     29.8 29.8      
Sep 15 18:53 S 5 10 Clear CLR 70        %     29.79 29.79      
Sep 15 17:53 SE 9 10 Clear CLR 72 60     66%   72 29.8 29.8      
Sep 15 16:53 SSE 6 10 Clear CLR 76 56     50%   76 29.8 29.8      
Sep 15 15:53 SSW 6 10 Clear CLR 78 52     40%   77 29.81 29.81      
Sep 15 14:53 6 10 Clear CLR 79 55     44%   79 29.82 29.82      
Sep 15 13:53 SSE 7 10 Clear CLR 78 54     43%   78 29.83 29.83      
Sep 15 12:53 SSW 7 10 Clear CLR 75 57     54%   75 29.85 29.85      
Sep 15 11:53 SSW 7 10 Clear CLR 73 60     64%   73 29.86 29.86      
Sep 15 10:53 S 6 10 Clear CLR 72 61     68%   72 29.88 29.88      
May 15 11:53 S 8 10 Mostly Clear FEW040 63 53     70%     30.07 30.06      
May 15 01:53 Calm 10 Clear   52 47     83%     29.98 29.98      
May 14 16:53 W 15 10 Clear CLR 64 48     56%     29.96 29.95      
May 14 13:53   10 Clear CLR 66 50     56%     30 30      
May 12 22:53 W 8 10 Cloudy OVC042 58 53     84%     30.01 30.01      
May 12 00:53 Calm 10 Cloudy OVC019 57 51     81%     29.88 29.87      
May 11 17:53 W 7 10 Cloudy OVC018 58 51     78%     29.81 29.81      
May 11 08:53 SSW 6 8 Cloudy OVC026 59 53     81%     29.87 29.87      
Jun 11 20:53 WNW 13 10 Clear CLR 60 42     51%     29.93 29.93      
Jun 11 19:53 NNW 16 10 Clear CLR 63 41     45%     29.92 29.92      
Jun 10 01:53 E 6 10 Clear CLR 60 52     75%     29.86 29.86      
Jun 09 14:53   10 Partly Cloudy FEW004 SCT040 69 61     75%     29.91 29.91      
Jun 08 20:33 SE 11 10 Clear CLR 63 56     78%     29.9        
Jun 08 09:04 WSW 6 10 Partly Cloudy SCT030 64 56     75%     30.01        
Jun 08 04:53 Calm 10 Cloudy FEW010 OVC019 59 57     93%     29.99 29.98      
Jun 07 23:53 Calm 10 Cloudy OVC019 61 57     87%     29.98 29.97      
Jun 07 22:53 W 7 10 Cloudy OVC020 59 57     93%     29.98 29.98      
Jun 07 15:53 W 9 10 Cloudy OVC023 64 57     78%     29.95 29.95